Home   Weather   Kailua-Kona   Past weeks
Flag for USA

Past Weather in Kailua-Kona, Hawaii, USA — July 2013

Now
82 °F

Scattered clouds.


Feels Like: 86 °F
Forecast: 80 / 72 °F
Wind: 10 mph from Southwest

Location: Keahole Airport

Current Time: May 21, 2019 at 11:41:27 am

Latest Report: May 21, 2019 at 10:53 am


Visibility: 10 mi

Pressure: 30.03 "Hg

Humidity: 70%

Dew Point: 71 °F

Location of Kailua-KonaLocation

July 2013 Weather in Kailua-Kona — Graph

°F

High & Low Weather Summary for July 2013

 TemperatureHumidityPressure
High88 °F (Jul 28, 11:53 am)91% (Jul 29, 4:53 pm)30.09 "Hg (Jul 29, 4:53 pm)
Low72 °F (Jul 21, 5:53 am)42% (Jul 10, 5:53 pm)29.83 "Hg (Jul 29, 4:46 am)
Average80 °F67%29.97 "Hg
* Reported Jul 1 12:53 am — Jul 31 11:53 pm, Kailua-Kona. Weather by CustomWeather, © 2019

Note: Actual official high and low records may vary slightly from our data, if they occured in-between our weather recording intervals... More about our weather records

Advertising

Kailua-Kona Weather History for July 1, 2013

Scroll right to see more
 ConditionsComfort  
Time TempWeatherWind HumidityBarometerVisibility
12:53 am
Mon, Jul 1
78 °FClear.14 mph52%29.96 "Hg10 mi
1:53 am77 °FClear.14 mph56%29.94 "Hg10 mi
2:53 am77 °FPassing clouds.12 mph58%29.94 "Hg10 mi
3:53 am75 °FClear.7 mph60%29.94 "Hg10 mi
4:53 am76 °FPassing clouds.12 mph60%29.94 "Hg10 mi
5:53 am76 °FSunny.3 mph64%29.94 "Hg10 mi
6:53 am77 °FPassing clouds.6 mph62%29.97 "Hg10 mi
7:53 am79 °FScattered clouds.5 mph58%29.99 "Hg10 mi
8:53 am82 °FSunny.6 mph53%29.98 "Hg10 mi
9:53 am84 °FSunny.10 mph55%29.99 "Hg10 mi
10:53 am82 °FPartly sunny.10 mph60%29.98 "Hg10 mi
11:53 am84 °FSunny.14 mph57%29.97 "Hg10 mi
12:53 pm84 °FPartly sunny.12 mph51%29.96 "Hg10 mi
1:53 pm83 °FPartly sunny.9 mph55%29.95 "Hg10 mi
2:53 pm83 °FPartly sunny.10 mph57%29.94 "Hg10 mi
3:53 pm84 °FOvercast.9 mph55%29.93 "Hg10 mi
4:53 pm84 °FPartly sunny.9 mph57%29.93 "Hg10 mi
5:53 pm83 °FPartly sunny.10 mph59%29.93 "Hg10 mi
6:53 pm81 °FPassing clouds.8 mph62%29.93 "Hg10 mi
7:53 pm80 °FMostly cloudy.7 mph64%29.96 "Hg10 mi
8:42 pm81 °FMostly cloudy.8 mph62%29.96 "Hg10 mi
8:53 pm80 °FOvercast.5 mph60%29.96 "Hg10 mi
9:53 pm79 °FClear.6 mph67%29.96 "Hg10 mi
10:53 pm80 °FOvercast.14 mph60%29.96 "Hg10 mi
11:53 pm77 °FClear.7 mph66%29.95 "Hg10 mi
Weather by CustomWeather, © 2019

See weather overview